This is the latest recevied weather packets stored in our database for station/object WA1NHP. If no packets are shown the sender has not sent any weather packets the latest 10 day(s).
| Time | Temp. | Humidity | Pressure | Rain* | Wind** | Luminosity | Snow |
|---|---|---|---|---|---|---|---|
| 1777728244 | 7.22° C | 96% | 1023.9 hPa | 0 mm | - | 76 W/m² | - |
| 1777727643 | 6.67° C | 96% | 1023.9 hPa | 0 mm | - | 65 W/m² | - |
| 1777727044 | 6.67° C | 97% | 1023.9 hPa | 0 mm | - | 79 W/m² | - |
| 1777726444 | 6.67° C | 96% | 1023.9 hPa | 0.25 mm | - | 49 W/m² | - |
| 1777725844 | 6.67° C | 96% | 1023.9 hPa | 0.25 mm | - | 130 W/m² | - |
| 1777725244 | 6.11° C | 96% | 1023.9 hPa | 0.25 mm | - | 125 W/m² | - |
| 1777724644 | 6.11° C | 96% | 1023.9 hPa | 0.25 mm | - | 109 W/m² | - |
| 1777724044 | 6.11° C | 96% | 1023.9 hPa | 0.25 mm | - | 81 W/m² | - |
| 1777723444 | 6.11° C | 96% | 1023.9 hPa | 0.51 mm | - | 56 W/m² | - |
| 1777722844 | 6.11° C | 96% | 1023.9 hPa | 0.76 mm | - | 26 W/m² | - |
| 1777722244 | 5.56° C | 96% | 1023.9 hPa | 0.76 mm | - | 21 W/m² | - |
| 1777721644 | 6.11° C | 96% | 1023.9 hPa | 0.76 mm | - | 21 W/m² | - |
| 1777721043 | 5.56° C | 96% | 1023.9 hPa | 0.76 mm | - | 28 W/m² | - |
| 1777720444 | 5.56° C | 96% | 1023.9 hPa | 0.76 mm | - | 32 W/m² | - |
| 1777719844 | 5.56° C | 96% | 1023.9 hPa | 0.51 mm | - | 14 W/m² | - |
| 1777719244 | 5.56° C | 96% | 1023.9 hPa | 0.25 mm | - | 11 W/m² | - |
| 1777718643 | 5.56° C | 96% | 1023.9 hPa | 0.25 mm | - | 11 W/m² | - |
| 1777718043 | 5° C | 96% | 1023.9 hPa | 0.25 mm | - | 16 W/m² | - |
| 1777717444 | 5° C | 96% | 1023.9 hPa | 0.76 mm | - | 12 W/m² | - |
| 1777716843 | 5° C | 96% | 1023.9 hPa | 1.02 mm | - | 18 W/m² | - |
| 1777716244 | 5° C | 95% | 1023.9 hPa | 1.27 mm | - | 9 W/m² | - |
| 1777715644 | 5° C | 95% | 1023.9 hPa | 1.27 mm | - | 5 W/m² | - |
| 1777715043 | 5° C | 95% | 1023.9 hPa | 1.52 mm | - | 0 W/m² | - |
| 1777714443 | 5° C | 95% | 1023.9 hPa | 1.78 mm | - | 0 W/m² | - |
| 1777713844 | 5° C | 95% | 1023.9 hPa | 1.27 mm | - | 0 W/m² | - |
* Rain latest hour (hover to see other rain measurements)
** Current wind speed in m/s (hover to see current wind gust speed)